Dubuque, IA

5:05 PM CDT on August 16, 2017 (GMT -0500)
Dubuque Regional

Weather History for KDBQ - March, 2014

Change the Weather History Date:

Wednesday, March 12, 2014

  Actual Average Record
Temperature  
Mean Temperature 27 °F 34 °F  
Max Temperature 35 °F 42 °F 75 °F (1990)
Min Temperature 19 °F 25 °F -4 °F (1948)
Degree Days  
Heating Degree Days 38 31  
Month to date heating degree days 543 405  
Since 1 July heating degree days 6919 5798  
Cooling Degree Days 0 0  
Month to date cooling degree days 0 0  
Year to date cooling degree days 0 0  
Moisture  
Dew Point 21 °F    
Average Humidity 71    
Maximum Humidity 84    
Minimum Humidity 58    
Precipitation  
Precipitation T in 0.06 in 1.60 in (1991)
Month to date precipitation 0.54 0.80  
Year to date precipitation 3.02 3.41  
Snow  
Snow T in 0.20 in - ()
Month to date snowfall 8.2 2.8  
Since 1 July snowfall 59.9 36.4  
Snow Depth 2.00 in    
Sea Level Pressure  
Sea Level Pressure 29.98 in    
Wind  
Wind Speed 13 mph (NNW)    
Max Wind Speed 24 mph    
Max Gust Speed 30 mph    
Visibility 8 miles    
Events Snow    
T = Trace of Precipitation, MM = Missing Value Source: NWS Daily Summary

Daily Weather History Graph

Daily Weather History Graph

Search for Another Location

Airport or City:

Trip Planner

Search our weather history database for the weather conditions in past years. The results will help you decide how hot, cold, wet, or windy it might be!

Date:

Astronomy

Mar. 12, 2014 Rise Set
Actual Time 7:19 AM CDT 7:05 PM CDT
Civil Twilight 6:51 AM CDT 7:33 PM CDT
Nautical Twilight 6:19 AM CDT 8:06 PM CDT
Astronomical Twilight 5:46 AM CDT 8:39 PM CDT
Moon 3:33 PM CDT (3/12) 4:55 AM CDT (3/12)
Length of Visible Light 12h 41m
Length of Day
11h 45m
Waxing Gibbous, 85% of the Moon is Illuminated
Mar 12
Waxing Gibbous
Mar 16
Full
Mar 23
Last Quarter
Mar 30
New
Apr 7
First Quarter

Hourly Weather History & Observations

Time (CDT) Temp. Windchill Dew Point Humidity Pressure Visibility Wind Dir Wind Speed Gust Speed Precip Events Conditions
12:53 AM 35.1 °F 24.8 °F 27.0 °F 72% 29.83 in 10.0 mi NNW 17.3 mph - N/A   Overcast
1:53 AM 35.1 °F 25.9 °F 26.1 °F 70% 29.81 in 10.0 mi North 13.8 mph - N/A   Overcast
2:53 AM 34.0 °F 23.8 °F 25.0 °F 70% 29.82 in 10.0 mi North 16.1 mph - N/A   Partly Cloudy
3:39 AM 34.0 °F 23.0 °F 25.0 °F 70% 29.79 in 10.0 mi North 18.4 mph - N/A   Mostly Cloudy
3:53 AM 33.1 °F 21.2 °F 25.0 °F 72% 29.83 in 10.0 mi North 20.7 mph - N/A   Overcast
4:53 AM 33.1 °F 23.0 °F 25.0 °F 72% 29.85 in 10.0 mi North 15.0 mph - N/A   Overcast
5:11 AM 32.0 °F 22.1 °F 25.0 °F 75% 29.83 in 10.0 mi North 13.8 mph - N/A   Overcast
5:26 AM 32.0 °F 21.6 °F 24.1 °F 73% 29.84 in 10.0 mi North 15.0 mph - N/A   Overcast
5:53 AM 30.9 °F 20.2 °F 23.0 °F 72% 29.88 in 10.0 mi NNW 15.0 mph - N/A   Overcast
6:53 AM 30.0 °F 17.9 °F 21.0 °F 69% 29.92 in 10.0 mi NNW 18.4 mph 25.3 mph N/A   Overcast
7:53 AM 28.9 °F 15.8 °F 19.9 °F 69% 29.94 in 10.0 mi NNW 20.7 mph 28.8 mph N/A   Overcast
8:53 AM 28.0 °F 14.9 °F 19.0 °F 69% 29.96 in 10.0 mi NNW 19.6 mph - N/A   Mostly Cloudy
9:53 AM 28.9 °F 16.9 °F 19.9 °F 69% 29.98 in 10.0 mi North 17.3 mph - N/A   Clear
10:53 AM 28.9 °F 16.1 °F 19.0 °F 67% 30.00 in 10.0 mi North 19.6 mph - N/A   Mostly Cloudy
11:53 AM 28.9 °F 17.3 °F 19.0 °F 67% 30.01 in 8.0 mi North 16.1 mph 25.3 mph 0.00 in Snow Light Snow
12:22 PM 27.0 °F 16.7 °F 24.1 °F 89% 29.99 in 1.8 mi NE 11.5 mph - 0.00 in Snow Light Snow
12:30 PM 27.0 °F 16.7 °F 23.0 °F 85% 29.99 in 1.8 mi NE 11.5 mph - 0.00 in Snow Light Snow
12:36 PM 26.1 °F 17.6 °F 23.0 °F 88% 30.00 in 3.0 mi NE 8.1 mph - 0.00 in Snow Light Snow
12:53 PM 27.0 °F 17.3 °F 24.1 °F 89% 30.04 in 6.0 mi NE 10.4 mph - 0.00 in   Overcast
1:22 PM 28.0 °F 20.0 °F 21.9 °F 78% 30.00 in 10.0 mi NE 8.1 mph - N/A   Overcast
1:53 PM 28.9 °F 19.2 °F 19.9 °F 69% 30.03 in 10.0 mi North 11.5 mph - N/A   Overcast
2:21 PM 28.0 °F 17.5 °F 21.0 °F 75% 30.00 in 2.0 mi NNW 12.7 mph - 0.00 in Snow Light Snow
2:23 PM 28.0 °F 17.0 °F 21.0 °F 75% 30.00 in 1.5 mi NNW 13.8 mph - 0.00 in Snow Light Snow
2:32 PM 28.0 °F 18.6 °F 21.0 °F 75% 30.00 in 2.0 mi NNW 10.4 mph - 0.00 in Snow Light Snow
2:40 PM 28.9 °F 21.1 °F 21.0 °F 72% 30.00 in 7.0 mi NNW 8.1 mph - 0.00 in Snow Light Snow
2:53 PM 30.0 °F 21.7 °F 19.0 °F 64% 30.04 in 9.0 mi North 9.2 mph 18.4 mph 0.00 in   Overcast
3:51 PM 28.4 °F 16.6 °F 21.2 °F 74% 30.02 in 2.0 mi NNW 16.1 mph - 0.00 in Snow Light Snow
3:53 PM 28.0 °F 16.5 °F 21.9 °F 78% 30.06 in 1.8 mi NNW 15.0 mph - 0.00 in Snow Light Snow
4:02 PM 28.0 °F 17.0 °F 21.0 °F 75% 30.02 in 3.0 mi NNW 13.8 mph - 0.00 in Snow Light Snow
4:11 PM 28.0 °F 18.6 °F 21.0 °F 75% 30.02 in 8.0 mi NNW 10.4 mph - 0.00 in   Overcast
4:53 PM 28.9 °F 18.2 °F 18.0 °F 64% 30.07 in 10.0 mi NNW 13.8 mph - 0.00 in   Overcast
5:53 PM 28.9 °F 17.3 °F 16.0 °F 58% 30.08 in 10.0 mi NW 16.1 mph - N/A   Overcast
6:53 PM 27.0 °F 18.0 °F 16.0 °F 63% 30.10 in 10.0 mi NW 9.2 mph - N/A   Clear
7:53 PM 24.1 °F 15.2 °F 16.0 °F 71% 30.11 in 10.0 mi NW 8.1 mph - N/A   Clear
8:53 PM 23.0 °F 13.1 °F 16.0 °F 74% 30.12 in 10.0 mi NW 9.2 mph - N/A   Clear
9:53 PM 21.0 °F 10.6 °F 15.1 °F 78% 30.14 in 10.0 mi WNW 9.2 mph - N/A   Clear
10:53 PM 21.0 °F 11.4 °F 16.0 °F 81% 30.13 in 10.0 mi WNW 8.1 mph - N/A   Clear
11:53 PM 19.9 °F 10.1 °F 15.1 °F 81% 30.13 in 10.0 mi NNW 8.1 mph - N/A   Clear